Home   Weather   Fredericton   Past weeks

Flag for Canada Past Weather in Fredericton, New Brunswick, Canada — Yesterday and Last 2 Weeks

Now
32 °F

Scattered clouds.


Feels Like: 26 °F
Forecast: 26 / 34 °F
Wind: 7 mph from Northwest

Location: Fredericton

Current Time: Dec 3, 2016 at 9:41:11 am

Latest Report: Dec 3, 2016 at 9:00 am


Visibility: 9 mi

Pressure: 29.68 "Hg

Humidity: 87%

Dew Point: 28 °F

Location of FrederictonLocation

Past Weather in Fredericton — Graph

°F

Fredericton Temperature Yesterday

Maximum temperature yesterday: 37 °F (at 11:00 am)
Minimum temperature yesterday: 30 °F (at 10:00 pm)
Average temperature yesterday: 34 °F

High & Low Weather Summary for the Past Weeks

 TemperatureHumidityPressure
High54 °F (Nov 18, 1:00 pm)100% (Nov 18, 9:00 pm)30.40 "Hg (Nov 18, 9:00 pm)
Low21 °F (Nov 29, 7:00 am)57% (Nov 28, 1:00 pm)29.26 "Hg (Nov 20, 5:58 pm)
Average36 °F89%29.85 "Hg
* Reported Nov 18 8:00 am — Dec 3 8:00 am, Fredericton, Weather by CustomWeather, © 2016

Note: Actual official high and low records may vary slightly from our data, if they occured in-between our weather recording intervals... More about our weather records

Advertising

Fredericton Weather History for the Previous 24 Hours

Scroll right to see more
 ConditionsComfort  
Time TempWeatherWind HumidityBarometerVisibility
8:00 am
Sat, Dec 3
30 °FOvercast.7 mph93%29.66 "Hg9 mi
7:53 am32 °FOvercast.8 mph93%29.66 "Hg9 mi
7:00 am32 °FLight snow. Overcast.9 mph93%29.64 "Hg8 mi
6:57 am32 °FLight snow. Overcast.8 mph93%29.64 "Hg6 mi
6:00 am32 °FLight snow. Overcast.7 mph93%29.63 "Hg7 mi
5:00 am32 °FOvercast.5 mph93%29.62 "Hg9 mi
4:45 am32 °FOvercast.3 mph100%29.61 "Hg9 mi
4:04 am32 °FLight mixture of precip. Mostly cloudy.5 mph100%29.61 "Hg9 mi
3:56 am32 °FLight mixture of precip. Mostly cloudy.5 mph100%29.61 "Hg9 mi
3:00 am32 °FLight snow. Overcast.2 mph100%29.61 "Hg4 mi
2:00 am32 °FLight snow. Overcast.3 mph100%29.61 "Hg1 mi
1:56 am32 °FLight snow. Overcast.2 mph100%29.61 "Hg2 mi
1:03 am32 °FLight snow. Overcast.5 mph100%29.60 "Hg4 mi
12:00 am32 °FOvercast.2 mph100%29.62 "Hg9 mi
11:00 pm
Fri, Dec 2
32 °FMostly cloudy.2 mph100%29.62 "Hg9 mi
10:53 pm32 °FOvercast.2 mph93%29.62 "Hg9 mi
10:00 pm30 °FOvercast.No wind100%29.63 "Hg9 mi
9:04 pm32 °FMostly cloudy.2 mph100%29.64 "Hg9 mi
8:52 pm32 °FLight rain. Mostly cloudy.3 mph100%29.65 "Hg9 mi
8:00 pm32 °FOvercast.2 mph93%29.65 "Hg9 mi
7:00 pm32 °FMostly cloudy.3 mph93%29.64 "Hg9 mi
6:00 pm32 °FOvercast.3 mph93%29.64 "Hg9 mi
5:00 pm34 °FPassing clouds.5 mph87%29.64 "Hg9 mi
4:00 pm36 °FScattered clouds.3 mph87%29.63 "Hg9 mi
3:54 pm36 °FPartly sunny.6 mph81%29.63 "Hg9 mi
3:00 pm37 °FPartly sunny.7 mph81%29.62 "Hg9 mi
2:59 pm37 °FPartly sunny.6 mph81%29.62 "Hg9 mi
2:00 pm37 °FPartly sunny.8 mph75%29.62 "Hg9 mi
1:00 pm37 °FScattered clouds.9 mph81%29.62 "Hg9 mi
12:01 pm37 °FBroken clouds.12 mph81%29.62 "Hg9 mi
11:00 am37 °FSunny.10 mph75%29.62 "Hg9 mi
10:00 am36 °FPartly sunny.10 mph81%29.61 "Hg9 mi
9:00 am34 °FSunny.8 mph87%29.60 "Hg9 mi
Weather by CustomWeather, © 2016

See weather overviewHow to use our weather pages